Dewpoint
-6 -6 -7 -7 -6 -6 -7 -7 -7 -8 -9 -10 -11 -11 -10 -7 -7 -8 -8 -10 -11 -9 -6 1 3 2 2
-8 -9 -9 -9 -10 -10 -10 -10 -10 -8 -7 -8 -9 -8 -6 -6 -7 -8 -9 -10 -10 -8 -4 -2 -0 1 2
-12 -14 -15 -14 -16 -16 -16 -15 -13 -12 -11 -10 -8 -8 -9 -9 -7 -7 -9 -10 -10 -10 -9 -5 -2 1 1
-16 -16 -17 -19 -21 -23 -23 -23 -23 -22 -22 -20 -15 -12 -9 -7 -8 -8 -8 -8 -8 -8 -8 -10 -9 -5 -2
-18 -19 -21 -18 -17 -19 -21 -20 -19 -19 -18 -17 -17 -18 -18 -18 -18 -18 -17 -13 -10 -8 -8 -8 -10 -10 -9
-18 -19 -21 -19 -18 -17 -18 -20 -20 -18 -18 -19 -19 -18 -18 -17 -19 -19 -20 -22 -21 -17 -11 -8 -9 -10 -10
-19 -20 -19 -19 -17 -17 -16 -17 -18 -17 -17 -17 -17 -17 -17 -18 -18 -18 -18 -19 -21 -22 -16 -11 -8 -9 -10
-18 -17 -16 -15 -15 -15 -15 -16 -17 -18 -17 -16 -21 -22 -22 -21 -20 -19 -19 -19 -19 -18 -17 -13 -9 -7 -8
-19 -19 -18 -17 -18 -18 -19 -17 -18 -22 -21 -16 -23 -24 -25 -24 -22 -20 -19 -19 -18 -15 -12 -9 -8 -8 -8
-23 -22 -22 -21 -19 -17 -15 -15 -13 -11 -12 -15 -14 -12 -12 -18 -17 -16 -14 -13 -13 -12 -8 -6 -7 -5 -6
-22 -21 -19 -17 -16 -17 -15 -13 -12 -12 -12 -10 -12 -12 -9 -8 -14 -16 -16 -16 -15 -16 -16 -15 -14 -12 -11
-19 -20 -18 -17 -17 -15 -13 -13 -12 -12 -13 -10 -8 -10 -10 -9 -6 -10 -14 -15 -12 -11 -13 -16 -15 -14 -13
-13 -14 -14 -14 -14 -15 -15 -12 -13 -14 -13 -10 -8 -7 -6 -6 -6 -8 -8 -11 -14 -14 -13 -14 -14 -16 -18
-11 -10 -10 -10 -11 -11 -12 -12 -12 -16 -15 -12 -9 -7 -7 -7 -7 -6 -7 -7 -10 -10 -9 -9 -11 -14 -16
-9 -9 -8 -7 -8 -9 -8 -8 -9 -12 -14 -12 -10 -8 -8 -9 -9 -9 -9 -8 -9 -10 -7 -9 -12 -16 -18
-7 -8 -8 -7 -8 -9 -8 -7 -7 -8 -10 -10 -7 -8 -9 -10 -10 -11 -11 -8 -9 -11 -12 -10 -12 -14 -9
-8 -8 -8 -9 -9 -9 -9 -9 -9 -9 -7 -8 -10 -9 -9 -9 -13 -9 -8 -9 -10 -10 -10 -9 -8 -10 -10
Wind_Speed
17 14 14 14 13 13 13 13 12 12 12 12 12 13 13 13 14 15 15 14 14 14 12 10 11 14 15
20 18 16 14 15 14 14 14 14 13 12 11 11 11 11 12 14 14 15 15 15 13 13 14 15 14 15
20 18 17 17 15 14 14 14 14 15 14 14 14 14 14 14 14 12 12 12 13 14 15 16 15 16 18
18 18 16 14 14 14 13 11 11 12 13 13 13 14 15 15 14 16 18 18 17 17 17 18 18 19 21
18 17 17 14 12 10 12 14 14 12 10 9 8 12 14 15 17 18 20 21 21 21 20 19 19 20 20
17 17 16 16 16 15 15 16 17 15 16 19 17 16 16 15 16 18 19 20 21 21 21 21 20 20 20
19 17 17 16 18 19 19 20 21 21 24 28 25 22 21 21 21 21 20 20 20 20 20 21 21 21 21
20 20 20 20 21 22 23 25 26 26 24 28 30 32 29 27 26 23 22 21 21 21 21 22 23 23 25
22 22 22 22 22 23 24 24 28 29 27 29 32 30 30 32 30 25 22 22 22 21 20 20 20 21 25
23 23 22 23 22 23 23 25 24 27 16 20 28 27 24 30 25 18 15 14 17 17 17 17 17 20 23
27 27 25 23 22 22 23 25 26 29 28 26 29 28 27 28 33 34 34 36 33 31 29 29 28 27 28
29 29 28 27 25 24 24 25 28 30 27 25 27 26 26 29 31 34 32 34 35 35 32 28 27 28 29
29 29 28 27 26 27 28 27 29 29 27 25 26 25 25 29 32 33 32 33 32 34 32 27 26 26 27
31 31 29 27 27 24 26 27 29 30 26 25 24 23 25 29 31 34 34 35 36 35 36 36 37 35 35
29 28 24 23 23 20 22 24 28 30 31 27 22 23 26 28 33 38 40 41 39 36 35 39 41 39 36
18 18 21 23 23 23 23 23 27 31 33 27 22 27 31 36 36 38 39 37 38 35 32 34 36 34 31
27 26 25 24 23 25 25 27 29 28 27 30 31 28 29 32 36 27 29 31 30 31 30 32 33 31 28
Wind_Direction
287 290 292 293 290 292 294 293 295 297 298 296 297 301 302 304 307 304 299 298 295 290 286 270 261 269 256
292 297 298 298 298 298 295 294 296 296 297 297 294 290 289 295 299 299 297 296 294 286 278 272 256 261 266
290 295 300 306 305 303 300 300 302 301 297 295 294 294 293 291 291 295 299 303 303 301 292 280 268 256 261
283 291 295 300 303 307 307 306 302 302 303 299 293 292 293 294 294 291 297 299 297 296 294 287 281 271 266
281 287 294 301 301 300 298 303 308 309 306 304 309 312 307 305 302 299 296 294 292 292 291 289 285 279 273
283 284 289 296 303 302 303 303 305 304 300 296 299 301 302 302 300 299 299 298 294 292 289 287 285 279 275
274 279 285 289 290 295 299 299 297 300 303 300 301 303 305 305 307 306 303 298 293 288 283 278 277 278 278
276 280 281 282 287 291 292 294 296 298 302 301 303 304 303 301 302 304 302 302 298 291 282 275 273 272 272
272 274 276 278 280 280 284 290 293 294 294 298 300 301 300 302 305 302 296 291 288 287 285 279 274 269 268
269 271 271 270 271 273 278 281 284 290 292 295 298 304 305 298 300 296 290 277 271 275 279 278 280 276 274
274 275 274 272 272 273 272 271 274 275 282 283 285 286 280 280 283 281 283 285 283 276 271 270 272 273 277
274 273 274 275 277 274 267 267 269 275 278 273 275 278 279 280 279 285 284 283 285 285 284 279 272 270 271
269 271 272 275 272 269 269 269 269 271 272 269 267 272 270 268 273 281 285 285 285 286 289 285 283 276 273
273 276 276 274 272 269 268 267 269 271 271 270 266 265 267 270 274 276 276 272 282 284 286 288 286 283 275
269 271 271 270 270 271 269 271 271 275 276 274 272 266 269 270 271 269 270 272 275 277 278 282 284 283 278
280 281 278 274 278 276 273 267 270 277 278 279 278 283 279 278 273 272 271 267 273 280 281 276 275 273 274
277 278 279 280 276 277 275 274 276 278 259 277 286 280 276 273 276 273 273 273 277 277 272 271 267 276 281
Height
1470 1471 1470 1470 1470 1469 1468 1466 1465 1463 1461 1460 1459 1458 1458 1459 1459 1459 1459 1459 1458 1458 1457 1458 1460 1461 1463
1464 1464 1464 1464 1463 1462 1461 1460 1459 1459 1459 1459 1458 1458 1458 1457 1456 1456 1455 1454 1453 1453 1454 1455 1456 1457 1458
1458 1458 1458 1457 1457 1456 1455 1455 1453 1453 1452 1453 1453 1453 1452 1452 1451 1451 1451 1451 1451 1451 1451 1451 1451 1452 1452
1453 1452 1452 1452 1452 1451 1451 1451 1451 1449 1448 1448 1448 1448 1448 1447 1448 1448 1448 1447 1447 1447 1446 1446 1446 1446 1446
1448 1448 1447 1447 1447 1447 1447 1446 1446 1446 1445 1445 1446 1446 1444 1444 1443 1442 1442 1442 1442 1441 1441 1440 1440 1440 1440
1444 1444 1443 1443 1442 1441 1440 1440 1440 1440 1439 1440 1441 1441 1440 1439 1438 1437 1437 1436 1435 1434 1434 1434 1434 1434 1434
1438 1438 1439 1439 1437 1436 1436 1434 1434 1435 1433 1431 1433 1434 1433 1433 1431 1431 1430 1429 1429 1429 1428 1428 1428 1428 1428
1432 1433 1432 1433 1432 1432 1430 1429 1428 1429 1428 1424 1426 1424 1425 1426 1425 1425 1424 1423 1422 1422 1422 1422 1422 1422 1422
1426 1426 1426 1426 1426 1425 1425 1424 1422 1422 1422 1419 1419 1419 1418 1417 1417 1418 1419 1419 1417 1417 1416 1416 1416 1416 1416
1419 1418 1419 1419 1420 1419 1419 1418 1418 1414 1416 1417 1415 1416 1413 1412 1413 1411 1412 1413 1413 1413 1412 1412 1411 1410 1410
1409 1410 1411 1411 1412 1413 1412 1411 1409 1407 1409 1410 1408 1409 1409 1406 1406 1407 1406 1405 1405 1405 1406 1406 1405 1405 1403
1401 1401 1401 1403 1404 1404 1404 1403 1402 1400 1402 1402 1399 1400 1400 1399 1397 1397 1397 1397 1396 1395 1396 1397 1397 1397 1396
1391 1390 1392 1394 1393 1393 1395 1393 1392 1392 1391 1393 1393 1392 1392 1391 1390 1389 1390 1388 1387 1386 1387 1387 1387 1387 1385
1383 1382 1382 1382 1383 1385 1385 1384 1383 1382 1384 1384 1384 1386 1384 1383 1382 1379 1381 1380 1379 1378 1379 1378 1377 1376 1376
1374 1373 1373 1374 1374 1376 1377 1377 1375 1374 1373 1375 1376 1377 1376 1376 1373 1369 1369 1369 1369 1370 1371 1369 1367 1365 1364
1369 1368 1367 1367 1367 1367 1367 1368 1368 1366 1365 1366 1367 1366 1364 1361 1361 1358 1358 1358 1359 1359 1360 1357 1355 1355 1354
1360 1360 1359 1359 1360 1358 1359 1359 1358 1358 1357 1358 1359 1357 1356 1351 1347 1351 1349 1349 1350 1349 1349 1348 1346 1346 1346